www.pogodaiklimat.ru

Погода и климат >> Архив погоды >> Россия >> Краснодарский край >> Кропоткин


ПОГОДА в Кропоткине

  • Прогноз погоды в Кропоткине
  • Монитор погоды в Кропоткине

АРХИВ ПОГОДЫ в Кропоткине

Время (UTC), дата Ветер
(напр.,м/с)
 
Видим.   Явления Облачность Т
(С)
Тd
(С)
f
(%)
Тe
(С)
Тes
(С)
Комфортность P
(гПа)
Po
(гПа)
Тmin
(С)
Tmax
(С)
R
(мм)
R24
(мм)
S
(см)
12 12.06 СВ 2 20 км в посл. час ливневой дождь 10/8 600 м
[Cb cap Ac cuf]
+27.3 +15.9 50 +31 +31 душно 1008.8 996.8
15 12.06 В 1 20 км слаб. ливневой дождь 10/9 600 м
[Cb cap Ac cuf]
+26.3 +14.6 49 +29 +29 жарко 1008.2 996.2 +29.6
18 12.06 СВ 1 20 км слаб. ливневой дождь 10/8 600 м
[Cb cap Ac cuf]
+20.3 +17.1 82 +25 +25 комфорт 1009.1 996.9
21 12.06 З 1 20 км 10/3 600 м
[Cb cap Ac cast Cc]
+19.0 +16.5 85 +22 +22 комфорт 1008.9 996.6
00 13.06 СЗ 1 20 км 10/8 600 м
[Cb cap Ac cuf Ci fib]
+19.2 +16.8 86 +22 +22 комфорт 1008.8 996.5
03 13.06 В 2 20 км 10/0
[Ac cast Cc]
+20.7 +14.1 66 +24 +25 комфорт 1009.6 997.3 +18.6 0.5
06 13.06 СВ 2 20 км 10/0
[Cc]
+28.4 +13.1 39 +30 +39 жарко 1010.2 998.2
09 13.06 В 4 20 км 10/6 600 м
[Cb cap Ac trans Ci]
+30.0 +7.8 25 +29 +32 жарко 1010.0 998.1
12 13.06 ЮВ 3 20 км 10/10 600 м
[Cb cap]
+29.1 +13.2 38 +31 +31 жарко 1010.1 998.2
15 13.06 СВ 3 20 км 10/10 600 м
[Cb cap]
+27.4 +13.8 43 +29 +29 жарко 1011.2 999.2 +31.3
18 13.06 Ю 2
{10}
20 км {ливн. осадки} 10/8 600 м
[Cb cap Ac As]
+23.7 +13.8 54 +26 +26 жарко 1011.9 999.8
21 13.06 СВ 2 20 км 10/6 600 м
[Sc Ac cast]
+21.6 +14.7 65 +25 +25 комфорт 1013.2 1000.9
00 14.06 В 1 20 км 10/5 600 м
[Sc Ac und]
+21.2 +15.3 69 +24 +24 комфорт 1012.7 1000.4
03 14.06 СВ 3 20 км 4/0
[Ac trans Cc]
+20.3 +12.6 61 +23 +23 комфорт 1013.9 1001.6 +20.3
06 14.06 В 6-11
{11}
20 км 8/0
[Cs]
+24.3 +10.9 43 +26 +29 жарко 1014.7 1002.5
09 14.06 СВ 5
{12}
20 км 6/0
[Ci fib]
+28.8 +10.4 32 +29 +38 жарко 1015.1 1003.1
12 14.06 СВ 5
{11}
20 км ясно +31.1 +8.5 25 +30 +37 жарко 1013.8 1001.9
15 14.06 СВ 4
{11}
20 км ясно +30.6 +8.6 25 +30 +31 жарко 1013.2 1001.3 +31.4
18 14.06 СВ 3 20 км ясно +25.9 +8.2 33 +26 +26 жарко 1013.4 1001.2
21 14.06 В 3 20 км ясно +23.3 +3.5 27 +23 +23 комфорт 1013.3 1001.0
00 15.06 С 2 20 км ясно +20.1 +7.2 43 +22 +22 комфорт 1013.2 1000.8
03 15.06 СВ 2 20 км 3/0
[Ci fib]
+19.7 +8.3 48 +21 +22 комфорт 1013.7 1001.3 +18.5
06 15.06 СВ 3 20 км 8/0
[Ci]
+27.1 +15.6 49 +30 +38 душно 1013.0 1000.9
09 15.06 В 4 20 км 10/0
[Ci fib]
+30.9 +11.9 31 +31 +42 жарко 1012.0 1000.1
12 15.06 СВ 4 20 км 10/0
[Ci fib]
+33.0 +10.5 25 +32 +40 жарко 1010.5 998.7
15 15.06 СВ 3 20 км 3/0
[Ci fib]
+31.5 +8.3 24 +30 +32 жарко 1009.9 998.0 +33.1
18 15.06 СВ 3 20 км 3/0
[Ac trans]
+27.1 +7.5 29 +27 +27 жарко 1009.9 997.8
21 15.06 СВ 2 20 км ясно +24.5 +3.8 26 +24 +24 комфорт 1010.0 997.8
00 16.06 СВ 1 20 км ясно +19.7 +5.7 40 +21 +21 комфорт 1009.5 997.1
03 16.06 С 1 20 км 3/0
[Ci fib]
+19.7 +8.8 49 +22 +23 комфорт 1009.9 997.5 +18.5
06 16.06 В 2 20 км 3/0
[Cc]
+27.8 +14.7 45 +30 +41 жарко 1009.3 997.3
09 16.06 В 3 20 км ясно +33.0 +9.2 23 +32 +48 жарко 1008.9 997.1
12 16.06 В 3 20 км 1/1 1000 м
[Cu hum]
+34.2 +7.2 19 +32 +42 жарко 1007.8 996.1
15 16.06 ЮВ 2 20 км 4/3 600 м
[Cb cap Ci fib]
+32.9 +6.1 19 +31 +33 жарко 1007.5 995.7 +34.8
18 16.06 СЗ 1 20 км 10/0
[Cc]
+25.2 +10.5 40 +26 +26 жарко 1007.2 995.1
21 16.06 З 1 20 км 10/0
[Cs]
+21.8 +15.7 68 +25 +25 комфорт 1007.7 995.5
00 17.06 С 1 20 км 10/0
[Ci fib]
+19.0 +13.8 72 +21 +21 комфорт 1008.9 996.5
03 17.06 В 2 20 км 3/0
[Ac cast]
+20.7 +13.7 64 +24 +25 комфорт 1009.4 997.1 +18.9
06 17.06 С 4 20 км 1/0
[Ci fib]
+25.6 +14.2 49 +28 +35 жарко 1010.0 997.9
09 17.06 СВ 4 20 км ясно +30.9 +12.4 32 +32 +44 жарко 1010.0 998.1
12 17.06 С 4 20 км 1/0
[Ac trans]
+32.3 +11.1 27 +32 +40 жарко 1009.3 997.5
15 17.06 СВ 4 20 км 3/1 600 м
[Cu hum Ci fib]
+31.1 +10.3 28 +31 +32 жарко 1009.1 997.2 +32.6
18 17.06 С 2 20 км ясно +25.9 +11.8 41 +27 +27 жарко 1010.2 998.1
21 17.06 СВ 3 20 км 6/0
[Cc]
+23.1 +9.6 42 +25 +25 комфорт 1011.2 999.0
00 18.06 СВ 2 20 км 8/0
[Cc]
+20.2 +8.9 48 +22 +22 комфорт 1011.1 998.8
03 18.06 С 3 20 км ясно +20.6 +9.7 50 +23 +24 комфорт 1011.8 999.5 +18.8
06 18.06 В 3 20 км ясно +28.1 +12.0 37 +29 +38 жарко 1011.6 999.6
09 18.06 СВ 5 20 км ясно +32.0 +9.2 24 +31 +41 жарко 1011.4 999.6
12 18.06 С 3 20 км ясно +33.7 +6.5 18 +32 +43 жарко 1010.2 998.4
15 18.06 СВ 3
{11}
20 км ясно +31.8 +3.3 16 +29 +31 жарко 1009.5 997.6 +33.7
18 18.06 С 2 20 км ясно +26.1 +6.6 29 +26 +26 жарко 1010.3 998.2
21 18.06 С 3 20 км ясно +22.9 +7.7 38 +24 +24 комфорт 1010.7 998.5
00 19.06 штиль 0 20 км ясно +18.9 +9.0 53 +19 +19 1010.7 998.3
03 19.06 СВ 2 20 км ясно +21.8 +9.0 44 +23 +24 комфорт 1010.6 998.3 +18.0
06 19.06 В 3 20 км ясно +28.9 +9.9 31 +29 +38 жарко 1010.4 998.4
09 19.06 СВ 3 20 км ясно +34.3 +7.8 20 +33 +49 жарко 1009.9 998.1

 

Местоположение метеостанции Кропоткин (Краснодарский край, Россия): широта 45.43 долгота 40.57 высота над уровнем моря 106 м.

В архиве по умолчанию представлена погода в Кропоткине за последнюю неделю. Архивные данные за месяц целиком и за предыдущие месяцы, начиная с января 2011 года, Вы можете получить, выбрав интересующий диапазон дат из раскрывающегося списка и нажав кнопку "Ввод!".


*Определитесь, кто Вы:
робот инопланетянин человек

Внимание! Время в таблицах - всемирное. Для получения местного времени необходимо прибавить поправку, которая равна 3 ч.

Смотрите также архив погоды в соседних городах и на ближайших метеорологических станциях:

Погода в Новоалександровске (Ставропольский край, Россия) (50 км)
Погода в Тихорецке (Краснодарский край, Россия) (60 км)
Погода в Дондуковской (Адыгея, Россия) (66 км)
Погода в Армавире (Краснодарский край, Россия) (66 км)
Погода в Усть-Лабинске (Краснодарский край, Россия) (69 км)
Погода в Белой Глине (Краснодарский край, Россия) (76 км)
Погода в Красногвардейском (Ставропольский край, Россия) (84 км)
Погода в Кореновске (Краснодарский край, Россия) (85 км)
Погода в Лабинске (Краснодарский край, Россия) (86 км)
Погода в Даховской (Адыгея, Россия) (86 км)

Пояснения к столбцам:

Ветер - указаны скорость ветра в м/с - средняя за 10 мин, порывы в срок и между сроками (в фигурных скобках) и направление, откуда дует ветер: С - северный, СВ - северо-восточный, В - восточный, ЮВ - юго-восточный, Ю - южный, ЮЗ - юго-западный, З - западный, СЗ - северо-западный.
Видимость - горизонтальная дальность видимости в метрах или километрах. При видимости от 1 до 10 км при отсутствии осадков обычно наблюдается дымка, при ухудшении видимости до 1 км и менее - туман. В сухую погоду видимость может ухудшаться дымом, пылью или мглою.
Явления - указаны атмосферные явления, наблюдавшиеся в срок или в последний час перед сроком; фигурными скобками обозначены явления, наблюдавшиеся между сроками (за 1-3 часа до срока); квадратными скобками обозначены град или гололедные отложения с указанием их диаметра в мм.
Облачность - указаны через наклонную черту общая и нижняя облачность в баллах и высота нижней границы облаков в метрах; квадратными скобками обозначены формы облаков: Ci - перистые, Cs - перисто-слоистые, Cc - перисто-кучевые, Ac - высококучевые, As - высокослоистые, Sc - слоисто-кучевые, Ns - слоисто-дождевые, Cu - кучевые, Cb - кучево-дождевые. Подробнее классификацию облаков см. в Атласе облаков (PDF).
T - Температура воздуха - температура, измеренная на высоте 2 м над землей.
Td - Температура точки росы - температура, при понижении до которой содержащийся в воздухе водяной пар достигнет насыщения.
f - Относительная влажность воздуха - влажноcть воздуха, измеренная на высоте 2 м над землей.
Te - Эффективная температура - температура, которую ощущает одетый по сезону человек в тени. Характеристика душности погоды. При расчете учитывается влияние влажности воздуха и скорости ветра на теплоощущения человека.
Tes - Эффективная температура на солнце - температура, которую ощущает человек, с поправкой на солнечный нагрев. Характеристика знойности погоды. Зависит от высоты солнца над горизонтом, облачности и скорости ветра. Ночью, в пасмурную погоду, а также при ветре 12 м/с и более поправка равна нулю.
P - Атмосферное давление - приведенное к уровню моря атмосферное давление.
Po - Атмосферное давление - измеренное на уровне метеостанции атмосферное давление.
Tmin - Минимальная температура - минимум температуры воздуха на высоте 2 м над землей.
Tmax - Максимальная температура - максимум температуры воздуха на высоте 2 м над землей.
R - Количество осадков - Количество выпавших осадков за период времени, мм. При наведении курсора мыши на число - период времени, за который выпало указанное количество осадков.
R24 - Количество осадков - Количество выпавших осадков за 24 часа, мм.
S - Снежный покров - Высота снежного покрова, см. При наведении курсора мыши на число - состояние снежного покрова и степень покрытия местности в баллах.